,,PA_Meas_PMT16A,,PR_Meas_QMR101_102,,RH_Meas_QMH101,,SR_Meas_QMS101,,TA_Meas_QMH101,,GenWind,,GenWind,
time,status,PA,status,PR,status,RH,status,SR,status,TA,status,DirAvg,status,SpdAvg,
2010-11-16, 00:00:04,VALID,917.784,VALID,0,VALID,92.411,VALID,0,VALID,21.125,VALID,162,VALID,0.248437,
2010-11-16, 00:01:04,VALID,917.781,VALID,0,VALID,92.2891,VALID,0,VALID,21.1445,VALID,162,VALID,0.352734,
2010-11-16, 00:02:04,VALID,917.801,VALID,0,VALID,92.1214,VALID,0,VALID,21.1445,VALID,162,VALID,0.425,
2010-11-16, 00:03:04,VALID,917.787,VALID,0,VALID,92.1671,VALID,0,VALID,21.164,VALID,162,VALID,0.269531,
2010-11-16, 00:04:04,VALID,917.803,VALID,0,VALID,92.1061,VALID,0,VALID,21.164,VALID,162,VALID,0.309766,
2010-11-16, 00:05:04,VALID,917.787,VALID,0,VALID,92.1671,VALID,0,VALID,21.1429,VALID,162,VALID,0.330078,
2010-11-16, 00:06:04,VALID,917.802,VALID,0,VALID,92.007,VALID,0,VALID,21.1445,VALID,162,VALID,0.187109,
2010-11-16, 00:07:04,VALID,917.799,VALID,0,VALID,92.007,VALID,0,VALID,21.1234,VALID,162,VALID,0,
2010-11-16, 00:08:04,VALID,917.791,VALID,0,VALID,92.1519,VALID,0,VALID,21.1445,VALID,162,VALID,0,
2010-11-16, 00:09:04,VALID,917.789,VALID,0,VALID,92.1214,VALID,0,VALID,21.1055,VALID,162,VALID,0,
2010-11-16, 00:10:04,VALID,917.751,VALID,0,VALID,92.4034,VALID,0,VALID,21.1055,VALID,162,VALID,0.0867188,
2010-11-16, 00:11:04,VALID,917.746,VALID,0,VALID,92.6702,VALID,0,VALID,21.1055,VALID,162,VALID,0,
2010-11-16, 00:12:04,VALID,917.778,VALID,0,VALID,92.6474,VALID,0,VALID,21.0665,VALID,162,VALID,0,
2010-11-16, 00:13:04,VALID,917.776,VALID,0,VALID,92.1061,VALID,0,VALID,21.0275,VALID,162,VALID,0.137891,
2010-11-16, 00:14:04,VALID,917.761,VALID,0,VALID,91.7097,VALID,0,VALID,20.9105,VALID,162,VALID,0.741406,
2010-11-16, 00:15:04,VALID,917.765,VALID,0,VALID,92.3272,VALID,0,VALID,20.7934,VALID,162,VALID,0.734766,
2010-11-16, 00:16:04,VALID,917.752,VALID,0,VALID,93.3335,VALID,0,VALID,20.7154,VALID,162,VALID,0.569531,
2010-11-16, 00:17:04,VALID,917.759,VALID,0,VALID,93.7985,VALID,0,VALID,20.6358,VALID,162,VALID,0.601953,
2010-11-16, 00:18:04,VALID,917.766,VALID,0,VALID,94.1111,VALID,0,VALID,20.6569,VALID,117,VALID,0.797656,
2010-11-16, 00:19:04,VALID,917.796,VALID,0,VALID,94.2178,VALID,0,VALID,20.6179,VALID,117,VALID,0.664453,
2010-11-16, 00:20:04,VALID,917.796,VALID,0,VALID,94.1187,VALID,0,VALID,20.6374,VALID,117,VALID,0.633594,
2010-11-16, 00:21:04,VALID,917.808,VALID,0,VALID,93.9281,VALID,0,VALID,20.6585,VALID,117,VALID,0.566016,
2010-11-16, 00:22:04,VALID,917.816,VALID,0,VALID,93.7909,VALID,0,VALID,20.6374,VALID,117,VALID,0.310156,
2010-11-16, 00:23:04,VALID,917.812,VALID,0,VALID,93.6918,VALID,0,VALID,20.5984,VALID,117,VALID,0.236719,
2010-11-16, 00:24:04,VALID,917.819,VALID,0,VALID,93.6765,VALID,0,VALID,20.5594,VALID,117,VALID,0.226953,
2010-11-16, 00:25:04,VALID,917.838,VALID,0,VALID,93.7375,VALID,0,VALID,20.5399,VALID,117,VALID,0.114063,
2010-11-16, 00:26:04,VALID,917.827,VALID,0,VALID,93.7985,VALID,0,VALID,20.4618,VALID,117,VALID,0.183594,
2010-11-16, 00:27:04,VALID,917.837,VALID,0,VALID,94.0425,VALID,0,VALID,20.4228,VALID,117,VALID,0.503906,
2010-11-16, 00:28:04,VALID,917.808,VALID,0,VALID,94.3474,VALID,0,VALID,20.3838,VALID,117,VALID,0.573828,
2010-11-16, 00:29:04,VALID,917.798,VALID,0,VALID,94.5456,VALID,0,VALID,20.3643,VALID,117,VALID,0.632031,
2010-11-16, 00:30:04,VALID,917.82,VALID,0,VALID,94.7667,VALID,0,VALID,20.3854,VALID,117,VALID,0.651172,
2010-11-16, 00:31:04,VALID,917.798,VALID,0,VALID,94.942,VALID,0,VALID,20.3643,VALID,117,VALID,0.327734,
2010-11-16, 00:32:04,VALID,917.805,VALID,0,VALID,95.125,VALID,0,VALID,20.4033,VALID,117,VALID,0,
2010-11-16, 00:33:04,VALID,917.784,VALID,0,VALID,95.2088,VALID,0,VALID,20.4228,VALID,117,VALID,0.122266,
2010-11-16, 00:34:04,VALID,917.799,VALID,0,VALID,95.2775,VALID,0,VALID,20.4634,VALID,117,VALID,0,
2010-11-16, 00:35:04,VALID,917.793,VALID,0,VALID,95.3079,VALID,0,VALID,20.4829,VALID,117,VALID,0,
2010-11-16, 00:36:04,VALID,917.794,VALID,0,VALID,95.3766,VALID,0,VALID,20.5009,VALID,117,VALID,0.196875,
2010-11-16, 00:37:04,VALID,917.766,VALID,0,VALID,95.4223,VALID,0,VALID,20.5204,VALID,117,VALID,0.336328,
2010-11-16, 00:38:04,VALID,917.764,VALID,0,VALID,95.4452,VALID,0,VALID,20.5204,VALID,117,VALID,0.376953,
2010-11-16, 00:39:04,VALID,917.79,VALID,0,VALID,95.4909,VALID,0,VALID,20.5399,VALID,117,VALID,0.235156,
2010-11-16, 00:40:04,VALID,917.764,VALID,0,VALID,95.5595,VALID,0,VALID,20.5609,VALID,117,VALID,0.455469,
2010-11-16, 00:41:04,VALID,917.759,VALID,0,VALID,95.59,VALID,0,VALID,20.5399,VALID,117,VALID,0.305859,
2010-11-16, 00:42:04,VALID,917.743,VALID,0,VALID,95.5671,VALID,0,VALID,20.5204,VALID,117,VALID,0.332031,
2010-11-16, 00:43:04,VALID,917.768,VALID,0,VALID,95.6053,VALID,0,VALID,20.5204,VALID,117,VALID,0.182422,
2010-11-16, 00:44:04,VALID,917.746,VALID,0,VALID,95.6053,VALID,0,VALID,20.5204,VALID,117,VALID,0.242188,
2010-11-16, 00:45:04,VALID,917.721,VALID,0,VALID,95.6129,VALID,0,VALID,20.5204,VALID,117,VALID,0.141406,
2010-11-16, 00:46:04,VALID,917.703,VALID,0,VALID,95.5748,VALID,0,VALID,20.5414,VALID,117,VALID,0,
2010-11-16, 00:47:04,VALID,917.678,VALID,0,VALID,95.5367,VALID,0,VALID,20.5204,VALID,117,VALID,0,
2010-11-16, 00:48:04,VALID,917.669,VALID,0,VALID,95.3994,VALID,0,VALID,20.5009,VALID,117,VALID,0.0105469,
2010-11-16, 00:49:04,VALID,917.651,VALID,0,VALID,95.3842,VALID,0,VALID,20.4813,VALID,117,VALID,0.4,
2010-11-16, 00:50:04,VALID,917.628,VALID,0,VALID,95.5519,VALID,0,VALID,20.5219,VALID,117,VALID,0.496875,
2010-11-16, 00:51:04,VALID,917.605,VALID,0,VALID,95.651,VALID,0,VALID,20.5204,VALID,117,VALID,0.575781,
2010-11-16, 00:52:04,VALID,917.586,VALID,0,VALID,95.6891,VALID,0,VALID,20.5009,VALID,117,VALID,0.46875,
2010-11-16, 00:53:04,VALID,917.569,VALID,0,VALID,95.7349,VALID,0,VALID,20.5204,VALID,117,VALID,0.319141,
2010-11-16, 00:54:04,VALID,917.533,VALID,0,VALID,95.7425,VALID,0,VALID,20.5414,VALID,117,VALID,0.198437,
2010-11-16, 00:55:04,VALID,917.536,VALID,0,VALID,95.6053,VALID,0,VALID,20.5024,VALID,117,VALID,0,
2010-11-16, 00:56:04,VALID,917.512,VALID,0,VALID,95.3842,VALID,0,VALID,20.4033,VALID,117,VALID,0,
2010-11-16, 00:57:04,VALID,917.502,VALID,0,VALID,95.3994,VALID,0,VALID,20.3838,VALID,117,VALID,0.495313,
2010-11-16, 00:58:04,VALID,917.493,VALID,0,VALID,95.4604,VALID,0,VALID,20.4033,VALID,117,VALID,0.470703,
2010-11-16, 00:59:04,VALID,917.488,VALID,0,VALID,95.4604,VALID,0,VALID,20.3838,VALID,117,VALID,0.358594,
2010-11-16, 01:00:04,VALID,917.462,VALID,0,VALID,95.3613,VALID,0,VALID,20.4244,VALID,117,VALID,0.0121094,
2010-11-16, 01:01:04,VALID,917.425,VALID,0,VALID,95.3003,VALID,0,VALID,20.4228,VALID,117,VALID,0,
2010-11-16, 01:02:04,VALID,917.417,VALID,0,VALID,95.1707,VALID,0,VALID,20.4228,VALID,117,VALID,0,
2010-11-16, 01:03:04,VALID,917.427,VALID,0,VALID,95.0488,VALID,0,VALID,20.4423,VALID,117,VALID,0,
2010-11-16, 01:04:04,VALID,917.404,VALID,0,VALID,94.9496,VALID,0,VALID,20.4618,VALID,117,VALID,0.208203,
2010-11-16, 01:05:04,VALID,917.424,VALID,0,VALID,94.8429,VALID,0,VALID,20.4813,VALID,117,VALID,0,
2010-11-16, 01:06:04,VALID,917.375,VALID,0,VALID,94.6295,VALID,0,VALID,20.5009,VALID,117,VALID,0,
2010-11-16, 01:07:04,VALID,917.371,VALID,0,VALID,94.538,VALID,0,VALID,20.5609,VALID,117,VALID,0,
2010-11-16, 01:08:04,VALID,917.344,VALID,0,VALID,94.3093,VALID,0,VALID,20.5804,VALID,117,VALID,0,
2010-11-16, 01:09:04,VALID,917.325,VALID,0,VALID,94.2254,VALID,0,VALID,20.5594,VALID,117,VALID,0,
2010-11-16, 01:10:04,VALID,917.287,VALID,0,VALID,94.355,VALID,0,VALID,20.5789,VALID,117,VALID,0.4125,
2010-11-16, 01:11:04,VALID,917.281,VALID,0,VALID,94.4694,VALID,0,VALID,20.5984,VALID,117,VALID,0.445703,
2010-11-16, 01:12:04,VALID,917.269,VALID,0,VALID,94.5151,VALID,0,VALID,20.5984,VALID,117,VALID,0.209375,
2010-11-16, 01:13:04,VALID,917.206,VALID,0,VALID,94.6066,VALID,0,VALID,20.5984,VALID,117,VALID,0.300391,
2010-11-16, 01:14:04,VALID,917.19,VALID,0,VALID,94.7743,VALID,0,VALID,20.6374,VALID,117,VALID,0.0789063,
2010-11-16, 01:15:04,VALID,917.2,VALID,0,VALID,94.8658,VALID,0,VALID,20.678,VALID,117,VALID,0.218359,
2010-11-16, 01:16:04,VALID,917.205,VALID,0,VALID,94.881,VALID,0,VALID,20.6569,VALID,117,VALID,0.0105469,
2010-11-16, 01:17:04,VALID,917.184,VALID,0,VALID,94.8582,VALID,0,VALID,20.6764,VALID,117,VALID,0.345703,
2010-11-16, 01:18:04,VALID,917.178,VALID,0,VALID,94.8429,VALID,0,VALID,20.6975,VALID,117,VALID,0.133984,
2010-11-16, 01:19:04,VALID,917.179,VALID,0,VALID,94.7743,VALID,0,VALID,20.6975,VALID,117,VALID,0.0828125,
2010-11-16, 01:20:04,VALID,917.142,VALID,0,VALID,94.7286,VALID,0,VALID,20.6764,VALID,117,VALID,0.046875,
2010-11-16, 01:21:04,VALID,917.159,VALID,0,VALID,94.7819,VALID,0,VALID,20.6959,VALID,117,VALID,0,
2010-11-16, 01:22:04,VALID,917.141,VALID,0,VALID,94.8353,VALID,0,VALID,20.6764,VALID,117,VALID,0.0511719,
2010-11-16, 01:23:04,VALID,917.117,VALID,0,VALID,94.7209,VALID,0,VALID,20.6374,VALID,117,VALID,0,
2010-11-16, 01:24:04,VALID,917.124,VALID,0,VALID,94.6066,VALID,0,VALID,20.5984,VALID,117,VALID,0.219922,
2010-11-16, 01:25:04,VALID,917.124,VALID,0,VALID,94.5685,VALID,0,VALID,20.5804,VALID,117,VALID,0.639453,
2010-11-16, 01:26:04,VALID,917.101,VALID,0,VALID,94.7819,VALID,0,VALID,20.5204,VALID,117,VALID,0.678516,
2010-11-16, 01:27:04,VALID,917.055,VALID,0,VALID,94.9344,VALID,0,VALID,20.4618,VALID,117,VALID,0.689453,
2010-11-16, 01:28:04,VALID,917.066,VALID,0,VALID,94.9268,VALID,0,VALID,20.4439,VALID,117,VALID,0.785156,
2010-11-16, 01:29:04,VALID,917.043,VALID,0,VALID,95.1174,VALID,0,VALID,20.3643,VALID,117,VALID,0.720312,
2010-11-16, 01:30:04,VALID,917.038,VALID,0,VALID,95.2775,VALID,0,VALID,20.3464,VALID,117,VALID,0.419922,
2010-11-16, 01:31:04,VALID,917.05,VALID,0,VALID,95.3232,VALID,0,VALID,20.3253,VALID,117,VALID,0.471094,
2010-11-16, 01:32:04,VALID,917.033,VALID,0,VALID,95.3994,VALID,0,VALID,20.3253,VALID,117,VALID,0.294922,
2010-11-16, 01:33:04,VALID,917.007,VALID,0,VALID,95.4528,VALID,0,VALID,20.3448,VALID,117,VALID,0.152344,
2010-11-16, 01:34:04,VALID,916.992,VALID,0,VALID,95.4071,VALID,0,VALID,20.3253,VALID,117,VALID,0.289844,
2010-11-16, 01:35:04,VALID,916.987,VALID,0,VALID,95.4223,VALID,0.107441,VALID,20.3253,VALID,117,VALID,0,
2010-11-16, 01:36:04,VALID,916.961,VALID,0,VALID,95.3842,VALID,0,VALID,20.3253,VALID,117,VALID,0.350391,
2010-11-16, 01:37:04,VALID,916.96,VALID,0,VALID,95.2698,VALID,0,VALID,20.3253,VALID,117,VALID,0.666016,
2010-11-16, 01:38:04,VALID,916.906,VALID,0,VALID,95.186,VALID,0,VALID,20.3253,VALID,117,VALID,0.510547,
2010-11-16, 01:39:04,VALID,916.886,VALID,0,VALID,95.0335,VALID,0,VALID,20.3448,VALID,117,VALID,0.516016,
2010-11-16, 01:40:04,VALID,916.866,VALID,0,VALID,94.9192,VALID,0,VALID,20.3253,VALID,117,VALID,0.671484,
2010-11-16, 01:41:04,VALID,916.833,VALID,0,VALID,94.8658,VALID,0,VALID,20.3448,VALID,118,VALID,0.664063,
2010-11-16, 01:42:04,VALID,916.799,VALID,0,VALID,94.7896,VALID,0,VALID,20.3448,VALID,118,VALID,0.270703,
2010-11-16, 01:43:04,VALID,916.777,VALID,0,VALID,94.7896,VALID,0,VALID,20.4049,VALID,118,VALID,0.267969,
2010-11-16, 01:44:04,VALID,916.761,VALID,0,VALID,94.8277,VALID,0,VALID,20.3838,VALID,118,VALID,0.365234,
2010-11-16, 01:45:04,VALID,916.77,VALID,0,VALID,94.8048,VALID,0,VALID,20.4049,VALID,118,VALID,0.498047,
2010-11-16, 01:46:04,VALID,916.731,VALID,0,VALID,94.7972,VALID,0,VALID,20.4033,VALID,118,VALID,0.357812,
2010-11-16, 01:47:04,VALID,916.729,VALID,0,VALID,94.7514,VALID,0,VALID,20.4033,VALID,118,VALID,0.167969,
2010-11-16, 01:48:04,VALID,916.729,VALID,0,VALID,94.6828,VALID,0.107441,VALID,20.4033,VALID,118,VALID,0.492578,
2010-11-16, 01:49:04,VALID,916.738,VALID,0,VALID,94.6676,VALID,0,VALID,20.4033,VALID,118,VALID,0.5,
2010-11-16, 01:50:04,VALID,916.709,VALID,0,VALID,94.6752,VALID,0,VALID,20.4244,VALID,118,VALID,0.473047,
2010-11-16, 01:51:04,VALID,916.73,VALID,0,VALID,94.5837,VALID,0,VALID,20.4049,VALID,118,VALID,0.428516,
2010-11-16, 01:52:04,VALID,916.73,VALID,0,VALID,94.5227,VALID,0,VALID,20.3643,VALID,118,VALID,1.03789,
2010-11-16, 01:53:04,VALID,916.709,VALID,0,VALID,94.538,VALID,0,VALID,20.3448,VALID,118,VALID,0.432031,
2010-11-16, 01:54:04,VALID,916.703,VALID,0,VALID,94.6295,VALID,0,VALID,20.3058,VALID,118,VALID,0.641016,
2010-11-16, 01:55:04,VALID,916.696,VALID,0,VALID,94.7057,VALID,0,VALID,20.2863,VALID,118,VALID,1.18789,
2010-11-16, 01:56:04,VALID,916.649,VALID,0,VALID,94.7286,VALID,0,VALID,20.3058,VALID,119,VALID,1.13437,
2010-11-16, 01:57:04,VALID,916.626,VALID,0,VALID,94.6218,VALID,0,VALID,20.3074,VALID,119,VALID,0.651563,
2010-11-16, 01:58:04,VALID,916.625,VALID,0,VALID,94.5913,VALID,0,VALID,20.2863,VALID,118,VALID,0.526172,
2010-11-16, 01:59:04,VALID,916.614,VALID,0,VALID,94.6066,VALID,0,VALID,20.2863,VALID,119,VALID,0.846094,
2010-11-16, 02:00:04,VALID,916.621,VALID,0,VALID,94.5685,VALID,0,VALID,20.2863,VALID,119,VALID,0.920313,
2010-11-16, 02:01:04,VALID,916.6,VALID,0,VALID,94.4922,VALID,0,VALID,20.3058,VALID,119,VALID,0.68125,
2010-11-16, 02:02:04,VALID,916.572,VALID,0,VALID,94.4617,VALID,0.107441,VALID,20.3058,VALID,119,VALID,0.355469,
2010-11-16, 02:03:04,VALID,916.596,VALID,0,VALID,94.4465,VALID,0.107441,VALID,20.3058,VALID,119,VALID,0.521094,
2010-11-16, 02:04:04,VALID,916.582,VALID,0,VALID,94.4465,VALID,0,VALID,20.2863,VALID,118,VALID,0.820313,
2010-11-16, 02:05:04,VALID,916.585,VALID,0,VALID,94.4465,VALID,0,VALID,20.2863,VALID,119,VALID,0.911328,
2010-11-16, 02:06:04,VALID,916.578,VALID,0,VALID,94.4694,VALID,0,VALID,20.2668,VALID,119,VALID,0.654297,
2010-11-16, 02:07:04,VALID,916.579,VALID,0,VALID,94.4846,VALID,0,VALID,20.2473,VALID,119,VALID,0.658594,
2010-11-16, 02:08:04,VALID,916.599,VALID,0,VALID,94.5609,VALID,0,VALID,20.2083,VALID,119,VALID,0.620703,
2010-11-16, 02:09:04,VALID,916.567,VALID,0,VALID,94.6066,VALID,0,VALID,20.1888,VALID,118,VALID,0.412891,
2010-11-16, 02:10:04,VALID,916.577,VALID,0,VALID,94.7514,VALID,0,VALID,20.1903,VALID,119,VALID,0.581641,
2010-11-16, 02:11:04,VALID,916.566,VALID,0,VALID,94.8658,VALID,0,VALID,20.1693,VALID,119,VALID,0.407422,
2010-11-16, 02:12:04,VALID,916.523,VALID,0,VALID,94.9039,VALID,0,VALID,20.1708,VALID,119,VALID,0.358594,
2010-11-16, 02:13:04,VALID,916.513,VALID,0,VALID,94.9725,VALID,0,VALID,20.1498,VALID,119,VALID,0.350781,
2010-11-16, 02:14:04,VALID,916.505,VALID,0,VALID,95.0335,VALID,0,VALID,20.1303,VALID,119,VALID,0.549609,
2010-11-16, 02:15:04,VALID,916.487,VALID,0,VALID,95.1402,VALID,0,VALID,20.1498,VALID,119,VALID,0.508984,
2010-11-16, 02:16:04,VALID,916.453,VALID,0,VALID,95.1479,VALID,0,VALID,20.1498,VALID,119,VALID,0.494141,
2010-11-16, 02:17:04,VALID,916.47,VALID,0,VALID,95.1402,VALID,0,VALID,20.1303,VALID,119,VALID,0.371484,
2010-11-16, 02:18:04,VALID,916.442,VALID,0,VALID,95.1783,VALID,0,VALID,20.1108,VALID,119,VALID,0.460547,
2010-11-16, 02:19:04,VALID,916.467,VALID,0,VALID,95.1555,VALID,0,VALID,20.1123,VALID,119,VALID,0.562891,
2010-11-16, 02:20:04,VALID,916.426,VALID,0,VALID,95.247,VALID,0,VALID,20.0913,VALID,119,VALID,0.750781,
2010-11-16, 02:21:04,VALID,916.421,VALID,0,VALID,95.3766,VALID,0,VALID,20.0718,VALID,119,VALID,0.628906,
2010-11-16, 02:22:04,VALID,916.443,VALID,0,VALID,95.4223,VALID,0,VALID,20.0718,VALID,119,VALID,0.676172,
2010-11-16, 02:23:04,VALID,916.421,VALID,0,VALID,95.4833,VALID,0,VALID,20.0523,VALID,119,VALID,0.594141,
2010-11-16, 02:24:04,VALID,916.405,VALID,0,VALID,95.4528,VALID,0,VALID,20.0523,VALID,119,VALID,0.676953,
2010-11-16, 02:25:04,VALID,916.388,VALID,0,VALID,95.4757,VALID,0,VALID,20.0733,VALID,119,VALID,0.796094,
2010-11-16, 02:26:04,VALID,916.397,VALID,0,VALID,95.4757,VALID,0,VALID,20.0928,VALID,119,VALID,0.7375,
2010-11-16, 02:27:04,VALID,916.378,VALID,0,VALID,95.3461,VALID,0,VALID,20.0913,VALID,119,VALID,0.463281,
2010-11-16, 02:28:04,VALID,916.36,VALID,0,VALID,95.2012,VALID,0,VALID,20.1318,VALID,119,VALID,0.861719,
2010-11-16, 02:29:04,VALID,916.366,VALID,0,VALID,95.003,VALID,0,VALID,20.1303,VALID,119,VALID,0.730469,
2010-11-16, 02:30:04,VALID,916.353,VALID,0,VALID,94.8353,VALID,0,VALID,20.1693,VALID,119,VALID,0.578906,
2010-11-16, 02:31:04,VALID,916.342,VALID,0,VALID,94.7057,VALID,0,VALID,20.1903,VALID,119,VALID,0.729297,
2010-11-16, 02:32:04,VALID,916.33,VALID,0,VALID,94.6447,VALID,0,VALID,20.2098,VALID,119,VALID,0.719141,
2010-11-16, 02:33:04,VALID,916.335,VALID,0,VALID,94.5913,VALID,0,VALID,20.1693,VALID,119,VALID,0.502734,
2010-11-16, 02:34:04,VALID,916.322,VALID,0,VALID,94.5913,VALID,0,VALID,20.1888,VALID,119,VALID,0.382031,
2010-11-16, 02:35:04,VALID,916.333,VALID,0,VALID,94.6218,VALID,0,VALID,20.1693,VALID,119,VALID,0.538281,
2010-11-16, 02:36:04,VALID,916.308,VALID,0,VALID,94.6066,VALID,0,VALID,20.1693,VALID,119,VALID,0.330469,
2010-11-16, 02:37:04,VALID,916.325,VALID,0,VALID,94.6371,VALID,0,VALID,20.1708,VALID,119,VALID,0.308203,
2010-11-16, 02:38:04,VALID,916.314,VALID,0,VALID,94.6523,VALID,0,VALID,20.1498,VALID,119,VALID,0.0816406,
2010-11-16, 02:39:04,VALID,916.29,VALID,0,VALID,94.6981,VALID,0,VALID,20.1303,VALID,119,VALID,0.144922,
2010-11-16, 02:40:04,VALID,916.305,VALID,0,VALID,94.6905,VALID,0,VALID,20.1318,VALID,119,VALID,0.351172,
2010-11-16, 02:41:04,VALID,916.299,VALID,0,VALID,94.7743,VALID,0,VALID,20.0913,VALID,119,VALID,0.395703,
2010-11-16, 02:42:04,VALID,916.27,VALID,0,VALID,94.8353,VALID,0,VALID,20.0718,VALID,119,VALID,0.295312,
2010-11-16, 02:43:04,VALID,916.265,VALID,0,VALID,94.8887,VALID,0,VALID,20.0718,VALID,119,VALID,0.238281,
2010-11-16, 02:44:04,VALID,916.254,VALID,0,VALID,94.9801,VALID,0,VALID,20.0538,VALID,119,VALID,0.6,
2010-11-16, 02:45:04,VALID,916.241,VALID,0,VALID,95.0259,VALID,0,VALID,20.0343,VALID,127,VALID,0.319531,
2010-11-16, 02:46:04,VALID,916.243,VALID,0,VALID,95.0716,VALID,0,VALID,20.0133,VALID,127,VALID,0.475391,
2010-11-16, 02:47:04,VALID,916.279,VALID,0,VALID,95.1402,VALID,0,VALID,20.0343,VALID,150,VALID,0.635156,
2010-11-16, 02:48:04,VALID,916.264,VALID,0,VALID,95.1479,VALID,0,VALID,20.0328,VALID,150,VALID,0.822656,
2010-11-16, 02:49:04,VALID,916.252,VALID,0,VALID,95.2012,VALID,0,VALID,20.0733,VALID,150,VALID,1.12695,
2010-11-16, 02:50:04,VALID,916.262,VALID,0,VALID,95.0869,VALID,0,VALID,20.0928,VALID,150,VALID,0.510547,
2010-11-16, 02:51:04,VALID,916.255,VALID,0,VALID,95.0564,VALID,0,VALID,20.0928,VALID,150,VALID,0.561328,
2010-11-16, 02:52:04,VALID,916.242,VALID,0,VALID,94.9801,VALID,0,VALID,20.0913,VALID,143,VALID,1.06016,
2010-11-16, 02:53:04,VALID,916.247,VALID,0,VALID,94.8429,VALID,0,VALID,20.1318,VALID,129,VALID,0.903906,
2010-11-16, 02:54:04,VALID,916.226,VALID,0,VALID,94.6752,VALID,0,VALID,20.1693,VALID,129,VALID,0.682422,
2010-11-16, 02:55:04,VALID,916.234,VALID,0,VALID,94.5227,VALID,0,VALID,20.1693,VALID,111,VALID,1.02813,
2010-11-16, 02:56:04,VALID,916.209,VALID,0,VALID,94.3321,VALID,0,VALID,20.2098,VALID,138,VALID,0.639063,
2010-11-16, 02:57:04,VALID,916.174,VALID,0,VALID,94.2102,VALID,0,VALID,20.2083,VALID,119,VALID,0.966797,
2010-11-16, 02:58:04,VALID,916.197,VALID,0,VALID,94.1111,VALID,0,VALID,20.2489,VALID,118,VALID,0.420703,
2010-11-16, 02:59:04,VALID,916.188,VALID,0,VALID,94.012,VALID,0,VALID,20.2489,VALID,118,VALID,0.536328,
2010-11-16, 03:00:04,VALID,916.158,VALID,0,VALID,94.0196,VALID,0,VALID,20.2473,VALID,119,VALID,0.805078,
2010-11-16, 03:01:04,VALID,916.155,VALID,0,VALID,94.0043,VALID,0,VALID,20.2489,VALID,119,VALID,0.871484,
2010-11-16, 03:02:04,VALID,916.13,VALID,0,VALID,93.9891,VALID,0,VALID,20.2684,VALID,119,VALID,0.653516,
2010-11-16, 03:03:04,VALID,916.136,VALID,0,VALID,93.9738,VALID,0,VALID,20.2473,VALID,119,VALID,0.614062,
2010-11-16, 03:04:04,VALID,916.136,VALID,0,VALID,94.012,VALID,0,VALID,20.2293,VALID,119,VALID,0.703516,
2010-11-16, 03:05:04,VALID,916.102,VALID,0,VALID,94.1416,VALID,0,VALID,20.2293,VALID,118,VALID,0.626172,
2010-11-16, 03:06:04,VALID,916.101,VALID,0,VALID,94.1721,VALID,0,VALID,20.2293,VALID,119,VALID,0.746484,
2010-11-16, 03:07:04,VALID,916.117,VALID,0,VALID,94.2026,VALID,0,VALID,20.1888,VALID,119,VALID,0.867969,
2010-11-16, 03:08:04,VALID,916.065,VALID,0,VALID,94.2102,VALID,0,VALID,20.1888,VALID,119,VALID,0.954687,
2010-11-16, 03:09:04,VALID,916.063,VALID,0,VALID,94.2102,VALID,0.107441,VALID,20.1888,VALID,119,VALID,0.898828,
2010-11-16, 03:10:04,VALID,916.061,VALID,0,VALID,94.2178,VALID,0,VALID,20.1903,VALID,100,VALID,0.944922,
2010-11-16, 03:11:04,VALID,916.072,VALID,0,VALID,94.233,VALID,0,VALID,20.1903,VALID,100,VALID,0.948047,
2010-11-16, 03:12:04,VALID,916.058,VALID,0,VALID,94.1797,VALID,0,VALID,20.1693,VALID,78,VALID,0.847266,
2010-11-16, 03:13:04,VALID,916.042,VALID,0,VALID,94.1721,VALID,0,VALID,20.1888,VALID,78,VALID,0.687891,
2010-11-16, 03:14:04,VALID,916.034,VALID,0,VALID,94.1416,VALID,0,VALID,20.1693,VALID,78,VALID,0.814453,
2010-11-16, 03:15:04,VALID,916.045,VALID,0,VALID,94.2254,VALID,0,VALID,20.1303,VALID,78,VALID,0.863281,
2010-11-16, 03:16:04,VALID,916.035,VALID,0,VALID,94.3245,VALID,0,VALID,20.1318,VALID,78,VALID,0.716016,
2010-11-16, 03:17:04,VALID,916.01,VALID,0,VALID,94.3931,VALID,0,VALID,20.1318,VALID,78,VALID,0.748828,
2010-11-16, 03:18:04,VALID,915.989,VALID,0,VALID,94.4541,VALID,0,VALID,20.0928,VALID,78,VALID,0.382422,
2010-11-16, 03:19:04,VALID,915.945,VALID,0,VALID,94.5456,VALID,0,VALID,20.0928,VALID,78,VALID,0.234375,
2010-11-16, 03:20:04,VALID,915.935,VALID,0,VALID,94.6295,VALID,0,VALID,20.0523,VALID,78,VALID,0,
2010-11-16, 03:21:04,VALID,915.923,VALID,0,VALID,94.6676,VALID,0,VALID,20.0538,VALID,78,VALID,0.126953,
2010-11-16, 03:22:04,VALID,915.902,VALID,0,VALID,94.7819,VALID,0,VALID,20.0733,VALID,78,VALID,0.262891,
2010-11-16, 03:23:04,VALID,915.868,VALID,0,VALID,94.8429,VALID,0,VALID,20.0538,VALID,78,VALID,0,
2010-11-16, 03:24:04,VALID,915.859,VALID,0,VALID,94.7819,VALID,0,VALID,20.0523,VALID,78,VALID,0.283984,
2010-11-16, 03:25:04,VALID,915.847,VALID,0,VALID,94.8048,VALID,0,VALID,20.0913,VALID,78,VALID,0.354688,
2010-11-16, 03:26:04,VALID,915.841,VALID,0,VALID,94.9115,VALID,0,VALID,20.0718,VALID,78,VALID,0.331641,
2010-11-16, 03:27:04,VALID,915.859,VALID,0,VALID,95.0335,VALID,0,VALID,20.0718,VALID,78,VALID,0.174609,
2010-11-16, 03:28:04,VALID,915.829,VALID,0,VALID,95.1097,VALID,0,VALID,20.0718,VALID,78,VALID,0.428516,
2010-11-16, 03:29:04,VALID,915.836,VALID,0,VALID,95.1326,VALID,0,VALID,20.0928,VALID,78,VALID,0.495703,
2010-11-16, 03:30:04,VALID,915.817,VALID,0,VALID,95.2012,VALID,0,VALID,20.0538,VALID,78,VALID,0.340625,
2010-11-16, 03:31:04,VALID,915.807,VALID,0,VALID,95.2927,VALID,0,VALID,20.0328,VALID,78,VALID,0.457422,
2010-11-16, 03:32:04,VALID,915.828,VALID,0,VALID,95.4071,VALID,0,VALID,19.9938,VALID,78,VALID,0.689062,
2010-11-16, 03:33:04,VALID,915.794,VALID,0,VALID,95.5519,VALID,0,VALID,19.9743,VALID,78,VALID,0.578125,
2010-11-16, 03:34:04,VALID,915.774,VALID,0,VALID,95.7272,VALID,0,VALID,19.9353,VALID,78,VALID,0.2,
2010-11-16, 03:35:04,VALID,915.801,VALID,0,VALID,95.9026,VALID,0,VALID,19.9938,VALID,78,VALID,0,
2010-11-16, 03:36:04,VALID,915.793,VALID,0,VALID,95.9788,VALID,0,VALID,19.9758,VALID,78,VALID,0,
2010-11-16, 03:37:04,VALID,915.785,VALID,0,VALID,96.0245,VALID,0,VALID,19.9953,VALID,78,VALID,0,
2010-11-16, 03:38:04,VALID,915.77,VALID,0,VALID,96.0779,VALID,0,VALID,19.9353,VALID,78,VALID,0,
2010-11-16, 03:39:04,VALID,915.76,VALID,0,VALID,96.0932,VALID,0,VALID,19.9353,VALID,78,VALID,0,
2010-11-16, 03:40:04,VALID,915.775,VALID,0,VALID,96.0779,VALID,0,VALID,19.9758,VALID,78,VALID,0,
2010-11-16, 03:41:04,VALID,915.771,VALID,0,VALID,96.1389,VALID,0,VALID,19.9368,VALID,78,VALID,0,
2010-11-16, 03:42:04,VALID,915.739,VALID,0,VALID,96.177,VALID,0,VALID,19.9563,VALID,78,VALID,0,
2010-11-16, 03:43:04,VALID,915.756,VALID,0,VALID,96.1999,VALID,0,VALID,19.9353,VALID,78,VALID,0,
2010-11-16, 03:44:04,VALID,915.78,VALID,0,VALID,96.2075,VALID,0,VALID,19.9173,VALID,78,VALID,0,
2010-11-16, 03:45:04,VALID,915.78,VALID,0,VALID,96.238,VALID,0,VALID,19.9173,VALID,77,VALID,0,
2010-11-16, 03:46:04,VALID,915.798,VALID,0,VALID,96.2609,VALID,0,VALID,19.8963,VALID,78,VALID,0,